Weather History for Pullman, WA

Change the Weather History Date:

Saturday, November 2, 2013

  Actual Average Record
Temperature  
Mean Temperature 45 °F 42 °F  
Max Temperature 52 °F 50 °F 69 °F (1988)
Min Temperature 37 °F 34 °F 13 °F (1961)
Degree Days  
Heating Degree Days 20 23  
Month to date heating degree days 43 46  
Since 1 July heating degree days 880 952  
Cooling Degree Days 0 0  
Month to date cooling degree days 0 0  
Year to date cooling degree days 334 213  
Moisture  
Dew Point 35 °F    
Average Humidity 72    
Maximum Humidity 86    
Minimum Humidity 57    
Precipitation  
Precipitation 0.18 in 0.07 in 0.53 in (1948)
Month to date precipitation 0.18 0.13  
Year to date precipitation 11.87 13.16  
Sea Level Pressure  
Sea Level Pressure 29.79 in    
Wind  
Wind Speed 19 mph (SSW)    
Max Wind Speed 43 mph    
Max Gust Speed 54 mph    
Visibility 9 miles    
Events Rain    
T = Trace of Precipitation, MM = Missing Value Source: NWS Daily Summary

Daily Weather History Graph

Daily Weather History Graph

Search for Another Location

Airport:

Trip Planner

Search our weather history database for the weather conditions in past years. The results will help you decide how hot, cold, wet, or windy it might be!

Date:

Astronomy

Nov. 02, 2013 Rise Set
Actual Time 7:32 AM PDT 5:30 PM PDT
Civil Twilight 7:00 AM PDT 6:02 PM PDT
Nautical Twilight 6:24 AM PDT 6:38 PM PDT
Astronomical Twilight 5:49 AM PDT 7:13 PM PDT
Moon 6:32 AM PDT (11/2) 5:06 PM PDT (11/2)
Length of Visible Light 11h 01m
Length of Day
9h 58m
Waning Crescent, 1% of the Moon is Illuminated
Nov 2
Waning Crescent
Nov 3
New
Nov 9
First Quarter
Nov 17
Full
Nov 25
Last Quarter

Hourly Weather History & Observations

Time (PDT) Temp. Windchill Dew Point Humidity Pressure Visibility Wind Dir Wind Speed Gust Speed Precip Events Conditions
12:53 AM 45.0 °F 39.7 °F 37.0 °F 74% 29.99 in 10.0 mi East 10.4 mph - 0.00 in   Overcast
1:53 AM 46.0 °F 39.9 °F 36.0 °F 68% 29.94 in 10.0 mi East 13.8 mph - N/A   Mostly Cloudy
2:53 AM 45.0 °F 38.2 °F 36.0 °F 71% 29.90 in 10.0 mi East 15.0 mph - N/A   Mostly Cloudy
3:53 AM 45.0 °F 37.9 °F 36.0 °F 71% 29.85 in 10.0 mi East 16.1 mph - N/A   Partly Cloudy
4:53 AM 45.0 °F 39.7 °F 36.0 °F 71% 29.83 in 10.0 mi East 10.4 mph - N/A   Partly Cloudy
5:53 AM 45.0 °F 38.2 °F 36.0 °F 71% 29.79 in 10.0 mi East 15.0 mph - N/A   Overcast
6:53 AM 45.0 °F 38.9 °F 36.0 °F 71% 29.75 in 10.0 mi ESE 12.7 mph - N/A   Overcast
7:53 AM 45.0 °F 38.9 °F 37.0 °F 74% 29.72 in 10.0 mi East 12.7 mph - 0.00 in   Overcast
8:53 AM 44.1 °F - 39.9 °F 85% 29.75 in 5.0 mi Calm Calm - 0.03 in Rain Light Rain
9:53 AM 46.0 °F 44.8 °F 43.0 °F 89% 29.76 in 4.0 mi SW 3.5 mph - 0.07 in Rain Light Rain
10:39 AM 46.4 °F 40.4 °F 42.8 °F 87% 29.73 in 6.0 mi WSW 13.8 mph 21.9 mph 0.03 in Rain Light Rain
10:53 AM 46.0 °F 40.6 °F 43.0 °F 89% 29.75 in 6.0 mi SW 11.5 mph - 0.03 in Rain Light Rain
11:53 AM 48.0 °F - 42.1 °F 80% 29.73 in 10.0 mi SSW 15.0 mph 21.9 mph 0.04 in   Overcast
12:53 PM 48.9 °F - 39.0 °F 69% 29.71 in 10.0 mi SW 13.8 mph 23.0 mph 0.00 in   Overcast
1:53 PM 50.0 °F - 37.9 °F 63% 29.69 in 10.0 mi SW 28.8 mph 39.1 mph N/A   Mostly Cloudy
2:53 PM 51.1 °F - 37.0 °F 59% 29.70 in 10.0 mi WSW 28.8 mph 42.6 mph 0.01 in   Scattered Clouds
3:53 PM 48.9 °F - 35.1 °F 59% 29.72 in 10.0 mi WSW 27.6 mph 50.6 mph N/A   Partly Cloudy
4:53 PM 45.0 °F 35.1 °F 30.0 °F 56% 29.75 in 10.0 mi WSW 31.1 mph 44.9 mph N/A   Clear
5:53 PM 43.0 °F 33.3 °F 30.0 °F 60% 29.79 in 10.0 mi SW 25.3 mph 34.5 mph N/A   Clear
6:53 PM 42.1 °F 31.7 °F 28.9 °F 60% 29.79 in 10.0 mi WSW 27.6 mph 38.0 mph N/A   Clear
7:53 PM 39.9 °F 29.5 °F 28.9 °F 65% 29.82 in 10.0 mi WSW 24.2 mph 35.7 mph N/A   Clear
8:53 PM 39.9 °F 28.6 °F 30.0 °F 68% 29.83 in 10.0 mi WSW 28.8 mph 40.3 mph N/A   Clear
9:53 PM 39.0 °F 28.3 °F 28.9 °F 67% 29.85 in 10.0 mi WSW 24.2 mph 32.2 mph N/A   Clear
10:53 PM 37.9 °F 26.8 °F 28.0 °F 68% 29.86 in 10.0 mi WSW 24.2 mph 33.4 mph N/A   Partly Cloudy
11:53 PM 37.0 °F 24.9 °F 28.0 °F 70% 29.87 in 10.0 mi SW 27.6 mph 35.7 mph N/A   Partly Cloudy